Погода в Васильевке

Россия / Пензенская область     53°13′42″N   44°41′38″E
темп.,
°C
ветер,
м/с
пор.,
м/с
влажн.,
%
обл.,
%
осадки,
мм/ч
давл.,
гПа
погр.,
м
9 марта, вт
вт900:00−14з34920 0.0 100849
03:00−15зсз22930 0.0 101020
06:00−16з22940 0.0 101020
09:00−12сз239335 0.1 1011154
12:00−10сз2389100 0.1 1011332
15:00−9сз4589100 0.1 1011627
18:00−14сз3495100 0.1 101378
21:00−15сз469593 0.1 1015107
10 марта, ср
ср1000:00−18сз479764 0.0 101595
03:00−19сз479962 0.0 1017118
06:00−20сз499976 0.0 1019178
09:00−18сз599483 0.1 1020357
12:00−16сз5889100 0.0 1021679
15:00−16сз6888100 0.1 1022794
18:00−19ссз4895100 0.1 1024167
21:00−22ссз4897100 0.1 1026142
11 марта, чт
чт1100:00−25ссз449848 0.0 102778
03:00−26ссз349833 0.0 102956
06:00−26сз34981 0.0 103060
09:00−22сз48951 0.0 1030228
12:00−18сз58914 0.0 1030404
15:00−15зсз589050 0.0 1029393
18:00−17сз479492 0.0 1029106
21:00−17сз499592 0.0 1030169
12 марта, пт
пт1200:00−19ссз349841 0.0 103171
03:00−20ссз339821 0.0 103226
06:00−21ссз23960 0.0 103420
09:00−17ссз12880 0.0 103487
12:00−12сз01790 0.0 1034187
15:00−10зюз12780 0.0 1034270
18:00−15юз23880 0.0 103420
21:00−16ю33910 0.0 103524
13 марта, сб
сб1300:00−18ююз34950 0.0 103560
03:00−19ю47970 0.0 103589
06:00−20ю47980 0.0 1035109
09:00−15ю5109316 0.0 1034274
12:00−11ю6118899 0.0 1033444
15:00−9ю7128499 0.0 1031618
18:00−11ю61488100 0.0 1030548
21:00−11ю71489100 0.0 1029499